Location: Unspecified
(33.6682°S, 0.0000°E)
Time: 03:33:03
(UTC+00:00)

Tiros 1 despin weight - Pass Details

Date: 18 June 2019
Orbit: 594 x 642 km, 48.2° (Epoch: 21 July)

Event Time Altitude Azimuth Distance (km) Brightness Sun altitude
Rises 10:43:09 0° 339° (NNW) 2,899 ? 30.0°
Reaches altitude 10° 10:45:44 10° 352° (N) 2,007 ? 30.2°
Maximum altitude 10:49:35 26° 48° (NE) 1,257 ? 30.4°
Drops below altitude 10° 10:53:29 10° 104° (ESE) 2,044 ? 30.7°
Sets 10:56:08 0° 116° (ESE) 2,964 ? 30.9°
